Wind_Speed
12 12 9 10 8 9 9 10 11 11 12 14 14 16 19 20 17 17 17 21 23 22 21 20 20 21 20 21 24 24 25 26 24
13 11 8 11 8 8 8 7 7 8 9 12 14 14 18 17 20 20 18 17 19 21 23 23 23 22 21 21 21 23 25 25 24
14 12 10 11 8 5 6 6 6 8 9 10 13 13 17 16 17 19 18 18 16 16 20 23 23 23 24 24 22 22 23 23 24
14 11 10 11 8 5 6 6 6 8 9 10 12 13 17 16 16 15 15 16 18 16 15 19 20 21 22 22 23 23 22 22 20
12 12 9 11 8 6 6 6 7 8 10 11 13 14 19 17 17 16 14 18 20 16 15 16 19 18 18 19 21 20 21 21 21
10 12 10 11 9 7 7 7 9 12 13 14 15 19 16 15 16 15 15 17 17 15 15 15 15 15 17 18 18 20 20 20 20
12 12 11 11 9 9 9 11 13 15 15 17 17 15 16 17 17 17 18 19 18 17 17 16 15 14 14 15 14 15 16 18 17
12 12 12 11 10 11 13 14 12 13 13 13 15 16 15 16 16 17 18 18 18 18 18 18 18 17 16 15 13 12 11 11 13
14 13 13 13 11 14 14 14 15 15 14 13 14 14 14 14 14 15 15 15 16 16 16 17 17 16 16 16 15 14 13 10 9
14 14 13 14 16 16 16 15 14 13 12 12 12 13 13 14 12 13 14 13 13 14 13 14 15 15 15 16 15 15 14 13 12
14 14 14 16 16 17 17 16 14 13 11 11 10 11 11 11 12 11 11 10 12 12 12 13 13 13 14 14 14 15 14 14 13
16 16 17 17 17 16 15 14 14 13 12 10 9 9 10 10 10 10 9 8 8 9 9 10 11 12 13 13 14 14 15 15 14
18 18 18 21 19 19 18 16 14 12 10 9 8 9 8 9 8 7 7 6 4 5 6 7 9 10 11 13 14 15 16 15 15
19 20 21 22 21 19 17 15 12 11 10 8 7 6 7 7 7 6 3 2 1 1 3 5 7 8 10 12 14 14 15 16 16
20 20 22 22 21 20 18 15 13 10 9 8 7 7 8 7 6 5 4 4 4 4 4 6 9 10 11 13 14 15 15 16 16
21 21 23 22 21 19 17 14 15 13 10 8 6 7 7 7 9 9 7 8 8 8 7 9 10 14 15 16 17 17 18 18 19
22 23 22 22 21 20 19 18 14 12 14 8 8 6 7 10 13 12 12 11 11 11 11 12 13 15 17 19 20 20 21 23 23
24 22 22 22 21 19 19 19 17 15 15 15 7 4 8 8 12 12 11 11 12 13 14 15 16 18 20 21 22 24 25 26 26
30 27 24 22 19 17 19 20 18 16 15 16 18 16 7 7 7 11 12 15 12 14 16 17 19 18 21 23 25 26 27 26 24
37 34 28 25 21 18 19 23 21 19 18 18 18 19 18 13 13 12 8 12 16 16 16 18 19 19 23 26 27 30 28 25 22
Wind_Direction
149 146 133 125 120 111 95 83 81 85 93 96 96 91 87 79 85 73 75 78 71 72 74 74 75 77 75 74 71 65 66 65 67
152 156 134 133 132 117 100 93 86 84 97 100 101 101 94 84 81 75 73 77 79 73 73 74 77 73 72 71 70 69 68 67 64
155 155 147 135 146 127 113 104 92 92 101 105 105 107 93 84 79 79 83 85 87 87 81 77 75 74 73 67 64 67 69 72 71
159 157 161 147 164 151 131 118 110 112 112 109 107 110 102 87 84 79 75 86 90 91 93 85 77 76 75 72 69 61 67 68 71
175 162 165 151 161 155 141 128 120 116 117 111 103 98 84 83 82 82 88 89 80 87 86 95 86 78 79 82 78 72 63 61 64
140 173 156 153 161 150 143 129 122 117 113 107 105 90 89 87 87 86 89 85 82 80 81 85 94 86 80 79 76 78 76 73 65
160 161 160 161 156 150 139 129 126 111 109 105 90 96 95 91 90 89 86 83 81 79 76 75 74 71 71 76 78 75 77 70 71
153 154 150 153 152 149 140 133 123 122 119 111 109 105 99 95 93 92 88 83 80 77 76 75 74 72 70 68 66 63 61 66 69
168 163 161 157 154 152 145 140 134 124 116 113 111 110 108 106 100 96 90 85 81 77 72 69 66 65 64 63 60 58 57 53 50
174 171 166 164 160 156 151 141 135 124 121 119 115 110 110 111 109 105 104 96 88 82 74 66 59 53 51 51 48 47 44 42 41
178 173 171 170 162 160 154 150 143 133 125 123 123 119 117 115 114 110 109 103 94 82 71 63 55 49 44 41 39 34 33 31 31
186 176 174 170 165 160 153 155 151 150 143 133 131 125 123 121 123 124 115 105 91 78 66 54 45 38 32 28 23 20 18 15 13
187 180 175 176 173 172 171 168 159 153 147 143 144 141 137 132 137 137 134 127 109 72 50 41 31 25 22 17 12 8 5 4 359
190 187 187 183 181 179 177 173 169 163 159 160 161 158 157 156 157 161 167 159 135 16 3 360 2 1 360 1 1 358 354 353 352
192 190 190 189 188 187 186 187 178 172 168 168 172 189 197 195 187 192 218 242 258 274 297 326 328 337 336 337 340 339 339 339 339
199 200 196 197 197 198 194 189 193 189 177 172 192 210 211 216 223 225 230 248 255 266 285 299 307 315 320 324 325 325 324 324 324
200 203 206 206 204 205 204 206 195 202 202 201 198 218 238 236 230 235 238 251 255 262 272 281 288 300 307 313 314 314 314 315 315
202 205 211 215 216 219 219 219 220 219 224 222 205 212 241 225 237 238 242 249 254 257 264 272 281 291 298 303 305 307 308 308 307
204 198 205 213 219 229 232 235 236 234 235 234 235 230 231 235 239 242 246 246 240 244 255 265 278 283 292 297 299 301 303 303 301
214 196 201 201 205 217 240 245 241 244 242 243 242 244 246 243 250 261 249 254 247 250 256 271 278 283 289 292 297 300 300 299 297
Height
1549 1549 1550 1550 1550 1551 1551 1550 1550 1549 1548 1548 1548 1548 1549 1550 1550 1550 1548 1547 1547 1546 1545 1544 1543 1542 1541 1541 1540 1538 1537 1536 1535
1549 1550 1552 1552 1551 1552 1553 1552 1552 1551 1551 1551 1550 1551 1551 1553 1551 1552 1552 1551 1551 1550 1548 1547 1546 1545 1545 1544 1543 1542 1541 1541 1539
1550 1550 1552 1553 1553 1554 1554 1554 1554 1553 1553 1553 1553 1553 1554 1556 1554 1554 1554 1554 1553 1552 1552 1551 1550 1549 1548 1548 1546 1545 1544 1544 1544
1552 1552 1553 1554 1554 1555 1555 1555 1555 1554 1555 1554 1555 1555 1556 1558 1559 1559 1558 1557 1556 1555 1554 1554 1553 1552 1552 1551 1550 1549 1548 1547 1546
1552 1554 1553 1555 1555 1556 1556 1557 1556 1556 1556 1556 1557 1558 1559 1561 1561 1561 1559 1558 1558 1556 1556 1556 1556 1556 1555 1554 1554 1553 1553 1551 1550
1553 1555 1554 1556 1556 1556 1558 1558 1558 1558 1558 1559 1560 1562 1564 1564 1564 1563 1560 1559 1558 1557 1557 1558 1558 1558 1557 1557 1556 1555 1555 1554 1554
1555 1554 1555 1557 1556 1558 1559 1560 1560 1561 1561 1562 1563 1566 1567 1567 1566 1566 1563 1562 1561 1560 1560 1560 1560 1559 1559 1559 1558 1558 1557 1557 1556
1555 1555 1557 1558 1557 1560 1561 1562 1563 1563 1565 1565 1567 1567 1569 1569 1569 1568 1566 1565 1564 1563 1563 1563 1562 1562 1562 1561 1561 1561 1560 1559 1559
1555 1556 1558 1558 1559 1560 1562 1563 1564 1565 1566 1570 1569 1569 1569 1570 1571 1569 1570 1569 1568 1566 1566 1565 1565 1564 1564 1564 1563 1563 1562 1562 1561
1554 1555 1556 1558 1558 1561 1563 1565 1567 1568 1569 1571 1572 1572 1571 1572 1572 1570 1570 1570 1570 1569 1569 1568 1568 1567 1567 1566 1566 1565 1564 1564 1563
1553 1555 1556 1557 1559 1562 1563 1566 1568 1569 1570 1572 1573 1573 1572 1572 1573 1573 1572 1572 1572 1572 1571 1571 1570 1570 1569 1568 1567 1567 1565 1565 1565
1552 1554 1556 1558 1560 1563 1565 1567 1567 1569 1570 1572 1574 1574 1574 1573 1573 1574 1575 1574 1574 1573 1573 1573 1573 1572 1571 1571 1570 1569 1568 1567 1566
1551 1553 1555 1558 1560 1563 1564 1566 1568 1569 1571 1573 1574 1573 1575 1574 1574 1575 1575 1575 1576 1575 1574 1574 1574 1574 1573 1572 1571 1570 1570 1569 1567
1550 1552 1554 1557 1560 1563 1565 1566 1568 1570 1571 1573 1575 1576 1575 1574 1574 1574 1575 1575 1576 1576 1575 1575 1574 1574 1574 1573 1572 1571 1570 1569 1569
1550 1551 1554 1557 1560 1562 1564 1566 1566 1569 1571 1573 1575 1574 1574 1574 1575 1575 1574 1574 1574 1575 1575 1575 1574 1573 1573 1572 1571 1571 1571 1570 1569
1548 1551 1553 1556 1559 1562 1564 1565 1565 1566 1569 1571 1573 1573 1575 1574 1573 1574 1573 1573 1573 1574 1574 1574 1573 1572 1572 1571 1569 1569 1569 1569 1568
1546 1550 1553 1556 1558 1560 1563 1565 1564 1565 1567 1571 1572 1573 1574 1571 1571 1572 1572 1572 1571 1572 1572 1571 1571 1571 1569 1569 1567 1565 1565 1565 1565
1543 1547 1551 1555 1557 1560 1563 1565 1564 1563 1566 1568 1570 1570 1571 1572 1569 1570 1569 1570 1570 1570 1570 1570 1569 1568 1566 1565 1564 1563 1562 1561 1561
1537 1541 1547 1551 1555 1558 1561 1565 1565 1563 1564 1565 1566 1566 1568 1569 1570 1567 1568 1567 1567 1565 1565 1566 1566 1565 1563 1562 1560 1559 1558 1556 1556
1529 1535 1542 1545 1547 1552 1558 1563 1562 1564 1563 1562 1562 1563 1563 1565 1568 1565 1565 1564 1562 1562 1562 1561 1562 1562 1559 1558 1556 1556 1554 1552 1550